Station OWMO1 - Old Woman Creek Western Reserve Image indicating link to RSS feed of recent meteorological observations for station OWMO1


Conditions at OWMO1 as of
2100 GMT on 05/30/2024:
     

Click on the graph icon in the table below to see a time series plot of the last five days of that observation.

5-day plot - Wind Direction Wind Direction (WDIR): N ( 10 deg true )
5-day plot - Wind Speed Wind Speed (WSPD): 7.0 kts
5-day plot - Air Temperature Air Temperature (ATMP): 65.1 °F
5-day plot - Dew Point Dew Point (DEWP): 36.5 °F
5-day plot - Wind Speed at 10 Meters Wind Speed at 10 meters (WSPD10M): 7.8 kts
5-day plot - Wind Speed at 20 Meters Wind Speed at 20 meters (WSPD20M): 7.8 kts
Previous observations
TIME
(GMT)
5-day plot - Wind Direction
WDIR
 
5-day plot - Wind Speed
WSPD
kts
5-day plot - Wind Gust
GST
kts
5-day plot - Wave Height
WVHT
ft
5-day plot - Dominant Wave Period
DPD
sec
5-day plot - Average Wave Period
APD
sec
5-day plot - Mean Wave Direction
MWD
 
5-day plot - Atmospheric Pressure
PRES
in
5-day plot - Pressure Tendency
PTDY
in
5-day plot - Air Temperature
ATMP
°F
5-day plot - Water Temperature
WTMP
°F
5-day plot - Dew Point
DEWP
°F
5-day plot - Salinity
SAL
psu
5-day plot - Visibility
VIS
nmi
5-day plot - Tide (above MLLW)
TIDE
ft
2024-05-30 2045 N 7.0------- 65.1- 35.6---
2024-05-30 2030 N 6.0------- 65.3- 35.1---
2024-05-30 2015 N 6.0------- 65.1- 34.9---
2024-05-30 2000 N 7.0------- 64.9- 34.0---
2024-05-30 1945NNW 5.1------- 65.5- 36.0---
2024-05-30 1930NNW 5.1------- 64.9- 35.6---
2024-05-30 1915NNE 6.0------- 64.9- 37.8---
2024-05-30 1900 N 6.0------- 64.2- 38.5---
2024-05-30 1845 N 7.0------- 64.0- 39.6---
2024-05-30 1830NNE 6.0------- 64.2- 39.7---
2024-05-30 1815 N 6.0------- 63.7- 38.7---
2024-05-30 1800NNW 5.1------- 64.2- 38.5---
2024-05-30 1745 N 6.0------- 63.7- 39.9---
2024-05-30 1730 N 6.0------- 63.5- 39.7---
2024-05-30 1715 N 6.0------- 63.0- 39.7---
2024-05-30 1700 N 6.0------- 63.1- 39.9---
2024-05-30 1645 N 6.0------- 62.6- 40.1---
2024-05-30 1630NNE 7.0------- 62.1- 39.6---
2024-05-30 1615 N 7.0------- 62.1- 40.8---
2024-05-30 1600NNE 7.0------- 61.9- 41.7---
2024-05-30 1545NNE 6.0------- 61.3- 42.3---
2024-05-30 1530NNE 6.0------- 61.2- 42.6---
2024-05-30 1515NNE 7.0------- 61.2- 42.6---
2024-05-30 1500NNE 7.0------- 61.0- 41.4---
2024-05-30 1445NNE 6.0------- 61.3- 42.3---
2024-05-30 1430 NE 6.0------- 60.8- 40.6---
2024-05-30 1415NNE 7.0------- 60.3- 40.3---
2024-05-30 1400NNE 7.0------- 59.9- 41.0---
2024-05-30 1345 NE 5.1------- 59.7- 41.7---
2024-05-30 1330NNE 6.0------- 59.0- 41.5---
2024-05-30 1315 N 6.0------- 58.1- 41.7---
2024-05-30 1300 NE 5.1------- 57.6- 43.2---
2024-05-30 1245NNE 4.1------- 57.0- 43.9---
2024-05-30 1230NNE 1.9------- 56.3- 43.7---
2024-05-30 1215 N 1.9------- 55.2- 42.3---
2024-05-30 1200 N 1.0------- 55.0- 43.2---
2024-05-30 1145- 0.0------- 53.2- 43.2---
2024-05-30 1130- 0.0------- 51.4- 42.8---
2024-05-30 1115- 0.0------- 50.4- 42.8---
2024-05-30 1100SSW 1.0------- 48.0- 41.9---
2024-05-30 1045 SW 1.9------- 46.0- 41.2---
2024-05-30 1030WSW 1.0------- 45.5- 40.6---
2024-05-30 1015- 0.0------- 45.0- 39.9---
2024-05-30 1000- 0.0------- 45.7- 39.6---
2024-05-30 0945NNW 1.9------- 46.9- 38.8---
2024-05-30 0930 NE 6.0------- 46.9- 38.8---
2024-05-30 0915 NE 5.1------- 46.4- 39.7---
2024-05-30 0900 NE 2.9------- 43.7- 40.6---
2024-05-30 0845- 0.0------- 43.5- 40.8---
2024-05-30 0830- 0.0------- 44.2- 40.6---
2024-05-30 0815 NW 1.0------- 45.1- 41.0---
2024-05-30 0800NNW 1.9------- 44.6- 41.9---
2024-05-30 0745 N 1.0------- 43.9- 41.7---
2024-05-30 0730- 0.0------- 43.9- 41.7---
2024-05-30 0715- 0.0------- 44.1- 41.5---
2024-05-30 0700- 0.0------- 44.2- 42.1---
2024-05-30 0645WNW 1.0------- 43.9- 41.4---
2024-05-30 0630- 0.0------- 43.7- 41.4---
2024-05-30 0615WNW 1.0------- 44.1- 41.5---
2024-05-30 0600- 0.0------- 44.2- 41.5---
2024-05-30 0545 W 1.9------- 44.8- 41.7---
2024-05-30 0530 W 1.9------- 45.0- 42.3---
2024-05-30 0515WNW 1.9------- 45.5- 42.3---
2024-05-30 0500WNW 1.0------- 45.7- 42.1---
2024-05-30 0445WNW 1.0------- 46.0- 42.8---
2024-05-30 0430 W 1.0------- 46.8- 42.8---
2024-05-30 0415WSW 1.9------- 46.9- 43.0---
2024-05-30 0400WSW 1.0------- 47.7- 43.2---
2024-05-30 0345- 0.0------- 48.4- 42.8---
2024-05-30 0330WSW 1.0------- 49.5- 42.6---
2024-05-30 0315- 0.0------- 50.5- 42.3---
2024-05-30 0300- 0.0------- 51.6- 41.5---
2024-05-30 0245 N 1.0------- 53.2- 40.3---
2024-05-30 0230 N 1.9------- 53.8- 40.5---
2024-05-30 0215NNE 1.9------- 54.3- 40.8---
2024-05-30 0200 NE 2.9------- 54.9- 40.5---
2024-05-30 0145NNE 4.1------- 55.6- 41.2---
2024-05-30 0130 NE 4.1------- 56.5- 41.5---
2024-05-30 0115NNE 4.1------- 56.8- 42.4---
2024-05-30 0100 NE 4.1------- 56.7- 43.5---
2024-05-30 0045NNE 5.1------- 57.0- 43.5---
2024-05-30 0030 NE 5.1------- 57.7- 43.3---
2024-05-30 0015NNE 5.1------- 58.8- 43.0---
2024-05-30 0000NNE 7.0------- 59.4- 42.4---
2024-05-29 2345NNE 8.0------- 59.9- 44.8---
2024-05-29 2330NNE 11.1------- 60.3- 46.0---
2024-05-29 2315NNE 8.0------- 61.3- 48.4---
2024-05-29 2300NNE 8.9------- 61.2- 49.1---
2024-05-29 2245NNE 8.9------- 61.5- 51.8---
2024-05-29 2230NNE 8.9------- 62.4- 53.4---
2024-05-29 2215NNE 9.9------- 61.5- 52.9---
2024-05-29 2200NNE 11.1------- 62.1- 53.1---